Flag for Canada Weather past 2 weeks in Morden, Manitoba, Canada

Now
64 °F

Mild.


Feels Like: 64 °F
Forecast: 52 / 76 °F
Wind: 2 mph from East

Location: Morden CDA CS

Current Time: Sep 2, 2014 at 9:16:54 PM

Latest Report: Sep 2, 2014 at 8:00 PM


Visibility: N/A

Pressure: 29.66 "Hg

Humidity: 69%

Dew point: 54 °F

Location of MordenLocation

Historic Weather in Morden — Graph

°F

Morden temperature yesterday

Maximum temperature yesterday: 73 °F (at 5:00 PM)
Minimum temperature yesterday: 54 °F (at 2:00 AM)
Average temperature yesterday: 63 °F

Past Weeks' High & Low Weather Summary

 TemperatureHumidityPressure
High83 °F (Aug 20, 2:00 PM)98% (Aug 23, 9:00 AM)30.18 "Hg (Aug 23, 9:00 AM)
Low44 °F (Aug 30, 7:00 AM)33% (Aug 30, 5:00 PM)29.51 "Hg (Aug 31, 3:00 PM)
Average63 °F79%29.82 "Hg
* Reported Aug 18 8:00 PM — Sep 2 8:00 PM, Morden, Weather by CustomWeather, © 2014

Note: Actual official high and low records may vary slightly from our data, if they occured in-between our weather recording intervals... More about our weather records

Advertising

Morden weather history for previous 24 hours

 ConditionsComfort  
Time TempWeatherWind HumidityBarometerVisibility
8:00 PM
Sep 2
64 °FMild.2 mph69%29.66 "HgN/A
7:00 PM68 °FMild.5 mph58%29.65 "HgN/A
6:00 PM69 °FMild.8 mph56%29.65 "HgN/A
5:00 PM70 °FMild.7 mph52%29.65 "HgN/A
4:00 PM71 °FMild.8 mph57%29.64 "HgN/A
3:00 PM75 °FMild.12 mph39%29.63 "HgN/A
2:00 PM76 °FMild.9 mph40%29.62 "HgN/A
1:00 PM74 °FMild.8 mph40%29.65 "HgN/A
12:00 PM72 °FMild.9 mph37%29.67 "HgN/A
11:00 AM69 °FMild.8 mph49%29.68 "HgN/A
10:00 AM63 °FMild.7 mph60%29.70 "HgN/A
9:00 AM58 °FCool.1 mph67%29.71 "HgN/A
8:00 AM56 °FCool.7 mph71%29.72 "HgN/A
7:00 AM53 °FCool.7 mph77%29.71 "HgN/A
6:00 AM52 °FCool.8 mph79%29.70 "HgN/A
5:00 AM53 °FCool.7 mph76%29.70 "HgN/A
4:00 AM54 °FCool.8 mph75%29.70 "HgN/A
3:00 AM55 °FCool.8 mph73%29.70 "HgN/A
2:00 AM55 °FCool.7 mph73%29.70 "HgN/A
1:00 AM55 °FCool.6 mph71%29.70 "HgN/A
12:00 AM57 °FCool.6 mph68%29.70 "HgN/A
11:00 PM
Sep 1
57 °FCool.6 mph69%29.70 "HgN/A
10:00 PM59 °FCool.6 mph65%29.70 "HgN/A
9:00 PM61 °FCool.3 mph60%29.69 "HgN/A
Weather by CustomWeather, © 2014

See weather overviewHow to use our weather pages